This is the latest recevied weather packets stored in our database for station/object KD9JJA. If no packets are shown the sender has not sent any weather packets the latest 10 day(s).
| Time | Temp. | Humidity | Pressure | Rain* | Wind** | Luminosity | Snow |
|---|---|---|---|---|---|---|---|
| 1777574886 | 15° C | 49% | 1018.3 hPa | 0 mm | - | 221 W/m² | - |
| 1777574583 | 15.56° C | 53% | 1018.3 hPa | 0 mm | - | 152 W/m² | - |
| 1777574279 | 15.56° C | 46% | 1018.5 hPa | 0 mm | - | 372 W/m² | - |
| 1777573975 | 15.56° C | 46% | 1018.7 hPa | 0 mm | - | 308 W/m² | - |
| 1777573670 | 15° C | 53% | 1018.6 hPa | 0 mm | - | 372 W/m² | - |
| 1777573366 | 15.56° C | 49% | 1018.7 hPa | 0 mm | - | 55 W/m² | - |
| 1777573062 | 16.11° C | 52% | 1018.9 hPa | 0 mm | - | 457 W/m² | - |
| 1777572759 | 15.56° C | 53% | 1018.6 hPa | 0 mm | - | 563 W/m² | - |
| 1777572454 | 15° C | 51% | 1018.8 hPa | 0 mm | - | 275 W/m² | - |
| 1777572150 | 15° C | 48% | 1018.8 hPa | 0 mm | - | 75 W/m² | - |
| 1777571845 | 15° C | 47% | 1018.8 hPa | 0 mm | - | 476 W/m² | - |
| 1777571541 | 15.56° C | 47% | 1018.8 hPa | 0 mm | - | 128 W/m² | - |
| 1777571238 | 15.56° C | 50% | 1019 hPa | 0 mm | - | 79 W/m² | - |
| 1777570934 | 15° C | 47% | 1018.7 hPa | 0 mm | - | 79 W/m² | - |
| 1777570624 | 15.56° C | 48% | 1018.9 hPa | 0 mm | - | 85 W/m² | - |
| 1777570321 | 15° C | 50% | 1019 hPa | 0 mm | - | 107 W/m² | - |
| 1777570016 | 14.44° C | 50% | 1018.9 hPa | 0 mm | - | 220 W/m² | - |
| 1777569713 | 14.44° C | 50% | 1019.3 hPa | 0 mm | - | 87 W/m² | - |
| 1777569408 | 14.44° C | 48% | 1019.2 hPa | 0 mm | - | 72 W/m² | - |
| 1777569105 | 14.44° C | 49% | 1019.2 hPa | 0 mm | - | 69 W/m² | - |
| 1777568802 | 15° C | 54% | 1019.4 hPa | 0 mm | - | 86 W/m² | - |
| 1777568500 | 14.44° C | 50% | 1019.1 hPa | 0 mm | - | 98 W/m² | - |
| 1777568196 | 13.89° C | 52% | 1019.5 hPa | 0 mm | - | 82 W/m² | - |
| 1777567893 | 13.89° C | 51% | 1019.3 hPa | 0 mm | - | 71 W/m² | - |
| 1777567589 | 14.44° C | 50% | 1019.4 hPa | 0 mm | - | 130 W/m² | - |
* Rain latest hour (hover to see other rain measurements)
** Current wind speed in m/s (hover to see current wind gust speed)